Regional Weather Roundup
Issued by NWS State College, PA

Home | Current Version | Previous Version | Text Only | Print | Product List | Glossary On
Versions: 1 2 3 4 5 6 7 8 9 10 11 12 13 14 15 16 17 18 19 20 21 22 23 24 25 26 27 28 29 30 31 32 33 34 35 36 37 38 39 40 41 42 43 44 45 46 47 48 49 50
000
ASUS41 KCTP 181810
RWRCTP

REGIONAL WEATHER ROUNDUP
NATIONAL WEATHER SERVICE STATE COLLEGE PA
100 PM EST WED JAN 18 2017

Note: "fair" indicates few or no clouds below 12,000 feet with no
significant weather and/or obstructions to visibility.

* = STATION THAT DOES NOT REPORT PRECIPITATION /E.G. RAIN...SNOW...ETC/
    THUNDER OR FOG.

PAZ002>004-007>009-013>016-020>023-029>032-181900-
WESTERN PENNSYLVANIA

CITY           SKY/WX    TMP DP  RH WIND       PRES   REMARKS
ERIE           CLOUDY    36  34  92 W14G22    30.04F FOG
MEADVILLE      CLOUDY    35  33  92 W10       30.03S FOG
FRANKLIN*        N/A     36  32  87 W10       30.04S
NEW CASTLE     CLOUDY    38  35  89 W10       30.08S
BEAVER COUNTY  CLOUDY    37  34  87 MISG      30.07S
BUTLER*        CLOUDY    37  34  87 W9        30.08S
PITTSBURGH INT CLOUDY    40  35  83 W12G21    30.07S
PITTSBURGH     CLOUDY    40  33  76 W12G21    30.06S
INDIANA*       CLOUDY    39  37  93 W13       30.06R
LATROBE        CLOUDY    39  36  87 W16       30.07R
WASHINGTON CO* CLOUDY    39  34  81 W9        30.09F
$$

PAZ004>006-010>012-017>019-024>028-033>037-041-042-045-046-049>053-181900-
CENTRAL PENNSYLVANIA

CITY           SKY/WX    TMP DP  RH WIND       PRES   REMARKS
BRADFORD       CLOUDY    34  34 100 W12       29.94F
DUBOIS         CLOUDY    37  34  89 W9G22     29.98S
CLEARFIELD     CLOUDY    41  37  86 W10G20    29.98S
JOHNSTOWN      CLOUDY    38  34  85 W20       29.98R
ALTOONA        CLOUDY    45  36  70 W18       29.98S
STATE COLLEGE  CLOUDY    43  37  81 NW12G21   29.96F
WILLIAMSPORT   CLOUDY    41  37  87 NW3       29.95  FOG
SELINSGROVE    CLOUDY    41  41 100 CALM      29.96R FOG
FT INDIANTOWN  CLOUDY    48  45  90 NW7       29.93R
CAPITAL CITY   CLOUDY    52  39  61 NW13G22   29.93S
HARRISBURG     CLOUDY    51  42  71 NW14      29.93R
YORK           CLOUDY    51  43  74 NW9       29.93S
$$

PAZ038>040-043-044-047-048-054-055-060>062-067>071-181900-
EASTERN PENNSYLVANIA

CITY           SKY/WX    TMP DP  RH WIND       PRES   REMARKS
SCRANTON       LGT RAIN  39  39 100 W5        29.92R FOG
MOUNT POCONO   CLOUDY    38  35  89 NW13G21   29.87R
ALLENTOWN      CLOUDY    43  38  82 CALM      29.93R
QUAKERTOWN*    CLOUDY    41  39  93 N5        29.93R
READING        CLOUDY    48  41  76 NW8       29.92R
LANCASTER      CLOUDY    50  44  80 NW13      29.92S
COATESVILLE    CLOUDY    48  43  81 NW10      29.92S
POTTSTOWN      CLOUDY    47  41  80 NW8       29.92S
BLUE BELL      CLOUDY    43  39  87 N6        29.91R
DOYLESTOWN     CLOUDY    43  39  86 NW6       29.91R
WILLOW GROVE   NOT AVBL
NORTH PHILA    CLOUDY    46  40  79 N12       29.94R
PHILADELPHIA   CLOUDY    47  40  76 N9        29.93R
$$




USA.gov is the U.S. government's official web portal to all federal, state and local government web resources and services.